Regional Weather Roundup
Issued by NWS

Home | Current Version | Previous Version | Graphics & Text | Print | Product List | Glossary On
Versions: 1 2 3 4 5 6 7 8 9 10 11 12 13 14 15 16 17 18 19 20 21 22 23 24 25 26 27 28 29 30 31 32 33 34 35 36 37 38 39 40 41 42 43 44 45 46 47 48 49 50
000
ASUS43 KMPX 201501
RWRMN
WEATHER ROUNDUP FOR MINNESOTA
NATIONAL WEATHER SERVICE TWIN CITIES/CHANHASSEN MN
1000 AM CDT MON APR 20 2015


NOTE: "FAIR" INDICATES FEW OR NO CLOUDS BELOW 12,000 FEET WITH NO
SIGNIFICANT WEATHER AND/OR OBSTRUCTIONS TO VISIBILITY. N/A MEANS
CURRENT SKY AND/OR WEATHER CONDITIONS ARE NOT AVAILABLE.

MNZ060>063-068>070-201600-
   Twin Cities Metro

CITY           SKY/WX    TMP DP  RH WIND       PRES   REMARKS
TWIN CITIES    CLOUDY    37  28  70 NW20G29   29.51S
ST PAUL        CLOUDY    38  28  67 NW23G31   29.51S
CRYSTAL        CLOUDY    38  27  64 NW22G28   29.51R
LAKEVILLE      CLOUDY    36  28  75 W22       29.50R
EDEN PRAIRIE   CLOUDY    38  27  64 W17G24    29.51S
SOUTH ST PAUL  CLOUDY    38  28  64 NW20G26   29.50S
LAKE ELMO      CLOUDY    37  32  81 NW16      29.50R
$$
MNZ001>005-007-008-013>017-022>024-027-028-201600-
   Northwest Minnesota

CITY           SKY/WX    TMP DP  RH WIND       PRES   REMARKS
BEMIDJI        CLOUDY    30  25  83 W24G32    29.51F WCI  16
HALLOCK        FLURRIES  32  27  80 N28G38    29.58F WCI  18
ROSEAU         CLOUDY    30  25  80 NW22      29.50F WCI  17
WARROAD        CLOUDY    30  25  80 W16G26    29.49F WCI  19
THIEF RVR FALL CLOUDY    32  25  74 NW29      29.56F WCI  18
CROOKSTON      CLOUDY    34  28  80 NW23G31   29.61F WCI  22
FOSSTON        CLOUDY    28  25  86 NW20G32   29.56F WCI  15
DETROIT LAKES  CLOUDY    32  28  86 NW26G32   29.59F WCI  18
MOORHEAD       CLOUDY    34  27  75 NW20G25   29.64F WCI  22
PARK RAPIDS    CLOUDY    34  26  72 NW23G29   29.52F WCI  22
MAHNOMEN       CLOUDY    30  27  86 NW22G31   29.58F WCI  17
$$
MNZ006-009>011-018-025>026-201600-
   North Central Minnesota

CITY           SKY/WX    TMP DP  RH WIND       PRES   REMARKS
BAUDETTE       CLOUDY    30  24  78 NW21G29   29.46F WCI  17
FLAG ISLAND    CLOUDY    28  27  93 NW20      29.45F WCI  15
INTL FALLS     CLOUDY    30  26  85 W14       29.42F WCI  19
WASKISH        CLOUDY    30  27  86 W16G23    29.48F WCI  19
BIG FORK       CLOUDY    30  27  86 W8        29.45F WCI  23
LONGVILLE      CLOUDY    32  27  80 W10G22    29.48F WCI  24
GRAND RAPIDS   CLOUDY    32  27  80 NW14      29.44F WCI  22
ORR            CLOUDY    30  25  80 NW15G22   29.39F WCI  19
COOK           CLOUDY    30  27  86 W14       29.41F WCI  20
WALKER         CLOUDY    30  26  84 NW12G22   29.50F WCI  20
$$
MNZ012-019>021-037-201600-
   Northeast Minnesota

CITY           SKY/WX    TMP DP  RH WIND       PRES   REMARKS
DULUTH         CLOUDY    35  28  75 NW21G32   29.37F WCI  24
ELY            CLOUDY    30  28  93 NW8       29.36F WCI  23
HIBBING        CLOUDY    32  26  78 NW20G25   29.41F WCI  20
EVELETH        CLOUDY    32  28  86 NW15G21   29.41F WCI  22
DULUTH HARBOR  CLOUDY    37  30  75 NW18G26   29.41F
TWO HARBORS    CLOUDY    37  30  75 NW14G26   29.33F
SILVER BAY     CLOUDY    37  28  70 NW14G28   29.30F
GRAND MARAIS     N/A     37  32  82 NW21G36   29.24F
G MARAIS ARPRT LGT SNOW  30  27  86 NW8G20    29.25F WCI  23
$$
MNZ029>031-032-039>041-046>048-054>057-064-201600-
   West Central Minnesota

CITY           SKY/WX    TMP DP  RH WIND       PRES   REMARKS
FERGUS FALLS   CLOUDY    34  27  75 N18G25    29.63F WCI  23
WHEATON        CLOUDY    36  28  75 NW20G26   29.66F
MORRIS         PTSUNNY   36  30  80 NW28      29.61F
ALEXANDRIA     CLOUDY    35  26  69 NW24G36   29.57F WCI  23
ELBOW LAKE     CLOUDY    34  28  78 NW28G35   29.61F WCI  21
WADENA         CLOUDY    30  27  86 NW18G30   29.55S WCI  18
GLENWOOD       PTSUNNY   36  28  75 NW24G36   29.58S
APPLETON       SUNNY     39  32  75 NW20G26   29.64S
BENSON         CLOUDY    37  30  75 N25G32    29.62S
ORTONVILLE     CLOUDY    39  30  70 NW20G26   29.64S
MADISON        CLOUDY    39  32  75 NW20G26   29.64F
WILLMAR        FAIR      39  32  75 NW29G36   29.60F
$$
MNZ033>034-036-042>043-049>051-058-059-201600-
   Central Minnesota

CITY           SKY/WX    TMP DP  RH WIND       PRES   REMARKS
ST CLOUD       CLOUDY    36  27  69 NW22      29.53S
SAUK CENTRE    CLOUDY    35  25  68 NW21G28   29.56S WCI  23
PAYNESVILLE    PTSUNNY   34  27  74 W21G35    29.57S WCI  23
AITKIN         CLOUDY    36  28  75 W8G18     29.46F
PINE RIVER     CLOUDY    34  27  75 NW12G21   29.54F WCI  25
BRAINERD       CLOUDY    33  26  75 NW18G28   29.51F WCI  22
STAPLES        CLOUDY    30  27  86 NW20      29.54S WCI  18
LONG PRAIRIE   CLOUDY    32  27  80 W18G29    29.56S WCI  20
LITTLE FALLS   CLOUDY    34  27  75 NW16G23   29.53S WCI  23
LITCHFIELD     CLOUDY    39  28  65 NW20G30   29.56S
BUFFALO        CLOUDY    37  26  65 NW15G31   29.54F
MAPLE LAKE     CLOUDY    37  29  71 W18G24    29.54F
$$
MNZ037-044-045-052-053-201600-
   East Central Minnesota

CITY           SKY/WX    TMP DP  RH WIND       PRES   REMARKS
PRINCETON      CLOUDY    37  28  70 W21       29.51S
MORA           CLOUDY    34  27  75 NW18G24   29.49S WCI  23
CAMBRIDGE      CLOUDY    37  27  65 NW14G25   29.48S
RUSH CITY      CLOUDY    36  29  76 NW10G20   29.48S
MOOSE LAKE     CLOUDY    34  30  86 NW13G24   29.43R WCI  25
HINCKLEY       CLOUDY    34  32  93 NW10G18   29.46S WCI  26
CLOQUET        CLOUDY    34  30  86 W16G24    29.40F WCI  23
MCGREGOR       CLOUDY    34  30  86 NW14G24   29.46S WCI  24
$$
MNZ071>073-080-081-089-090-097-098-201600-
   Southwest Minnesota

CITY           SKY/WX    TMP DP  RH WIND       PRES   REMARKS
MONTEVIDEO     CLOUDY    39  34  81 N21G29    29.64S
GRANITE FALLS  CLOUDY    38  31  76 NW21G30   29.65S
CANBY          CLOUDY    40  32  71 N15G23    29.66F
MARSHALL       CLOUDY    39  28  65 NW21G31   29.64F
REDWOOD FALLS  CLOUDY    39  30  70 NW21G29   29.62S
OLIVIA         CLOUDY    37  30  75 NW24G31   29.60S
PIPESTONE      PTSUNNY   39  30  70 NW21G30   29.66S
WORTHINGTON    PTSUNNY   43  28  56 NW24G36   29.65S
JACKSON        CLOUDY    41  34  75 NW24G36   29.63R
TRACY          CLOUDY    40  33  76 NW23G32   29.64F
SLAYTON        CLOUDY    40  30  67 NW29G36   29.64S
$$
MNZ065>067-074>077-082>085-091>093-201600-
   South Central Minnesota

CITY           SKY/WX    TMP DP  RH WIND       PRES   REMARKS
MANKATO        PTSUNNY  N/A N/A N/A NW28G40   29.56S
NEW ULM        PTSUNNY   39  30  70 NW26G40   29.59R
ST JAMES       PTSUNNY   43  30  61 NW29G39   29.62S
FAIRMONT       CLOUDY    39  28  65 NW24G32   29.60S
GLENCOE        CLOUDY    38  29  71 NW23G32   29.56R
FARIBAULT      CLOUDY    37  28  70 NW24G35   29.53S
OWATONNA       CLOUDY    37  28  70 NW26G35   29.53S
WASECA         PTSUNNY   39  30  70 NW28G37   29.56S
ALBERT LEA     MOSUNNY   39  30  70 NW24G35   29.53S
$$
MNZ078>079-086>088-094>096-201600-
   Southeast Minnesota

CITY           SKY/WX    TMP DP  RH WIND       PRES   REMARKS
ROCHESTER      CLOUDY    36  30  79 NW26G32   29.49R
RED WING       CLOUDY    39  28  65 NW12G23   29.48R
STANTON        CLOUDY    39  30  69 NW20G28   29.50S
DODGE CENTER   CLOUDY    37  30  75 NW18G29   29.49R
WINONA         CLOUDY    41  32  70 NW14G23   29.45S
AUSTIN         CLOUDY    37  30  75 NW23G37   29.51R
PRESTON        CLOUDY    36  30  80 NW17G24   29.48S
$$
ABBREVIATIONS USED IN REMARKS
   TC - TEMPERATURES IN CELSIUS
  WCI - WIND CHILL INDEX
   HX - HEAT INDEX
  VSB - VISIBILITY
$$



USA.gov is the U.S. government's official web portal to all federal, state and local government web resources and services.